Year,Month,Day,Hour,Minute,Value (Times are PST for temperature in C)
2011,04,26,00,00,6.00
2011,04,26,00,01,6.00
2011,04,26,00,02,6.00
2011,04,26,00,03,6.00
2011,04,26,00,04,6.00
2011,04,26,00,05,6.00
2011,04,26,00,06,6.00
2011,04,26,00,07,6.00
2011,04,26,00,08,6.00
2011,04,26,00,09,6.00
2011,04,26,00,10,6.00
2011,04,26,00,11,6.00
2011,04,26,00,12,6.00
2011,04,26,00,13,6.00
2011,04,26,00,14,6.00
2011,04,26,00,15,5.90
2011,04,26,00,16,5.90
2011,04,26,00,17,5.90
2011,04,26,00,18,5.90
2011,04,26,00,19,5.90
2011,04,26,00,20,5.80
2011,04,26,00,21,5.90
2011,04,26,00,22,5.90
2011,04,26,00,23,5.90
2011,04,26,00,24,5.90
2011,04,26,00,25,5.90
2011,04,26,00,26,5.90
2011,04,26,00,27,5.80
2011,04,26,00,28,5.80
2011,04,26,00,29,5.80
2011,04,26,00,30,5.80
2011,04,26,00,31,5.80
2011,04,26,00,32,5.70
2011,04,26,00,33,5.70
2011,04,26,00,34,5.70
2011,04,26,00,35,5.70
2011,04,26,00,36,5.70
2011,04,26,00,37,5.70
2011,04,26,00,38,5.70
2011,04,26,00,39,5.60
2011,04,26,00,40,5.70
2011,04,26,00,41,5.70
2011,04,26,00,42,5.70
2011,04,26,00,43,5.70
2011,04,26,00,44,5.70
2011,04,26,00,45,5.70
2011,04,26,00,46,5.70
2011,04,26,00,47,5.70
2011,04,26,00,48,5.70
2011,04,26,00,49,5.70
2011,04,26,00,50,5.70
2011,04,26,00,51,5.70
2011,04,26,00,52,5.70
2011,04,26,00,53,5.70
2011,04,26,00,54,5.70
2011,04,26,00,55,5.70
2011,04,26,00,56,5.70
2011,04,26,00,57,5.70
2011,04,26,00,58,5.70
2011,04,26,00,59,5.70
2011,04,26,01,00,5.70
2011,04,26,01,01,5.70
2011,04,26,01,02,5.70
2011,04,26,01,03,5.70
2011,04,26,01,04,5.60
2011,04,26,01,05,5.60
2011,04,26,01,06,5.60
2011,04,26,01,07,5.60
2011,04,26,01,08,5.60
2011,04,26,01,09,5.50
2011,04,26,01,10,5.50
2011,04,26,01,11,5.50
2011,04,26,01,12,5.50
2011,04,26,01,13,5.50
2011,04,26,01,14,5.40
2011,04,26,01,15,5.40
2011,04,26,01,16,5.30
2011,04,26,01,17,5.30
2011,04,26,01,18,5.30
2011,04,26,01,19,5.20
2011,04,26,01,20,5.20
2011,04,26,01,21,5.10
2011,04,26,01,22,5.10
2011,04,26,01,23,5.10
2011,04,26,01,24,5.00
2011,04,26,01,25,4.90
2011,04,26,01,26,4.90
2011,04,26,01,27,4.80
2011,04,26,01,28,4.80
2011,04,26,01,29,4.70
2011,04,26,01,30,4.70
2011,04,26,01,31,4.60
2011,04,26,01,32,4.60
2011,04,26,01,33,4.60
2011,04,26,01,34,4.60
2011,04,26,01,35,4.50
2011,04,26,01,36,4.50
2011,04,26,01,37,4.40
2011,04,26,01,38,4.40
2011,04,26,01,39,4.30
2011,04,26,01,40,4.30
2011,04,26,01,41,4.30
2011,04,26,01,42,4.20
2011,04,26,01,43,4.20
2011,04,26,01,44,4.20
2011,04,26,01,45,4.20
2011,04,26,01,46,4.20
2011,04,26,01,47,4.20
2011,04,26,01,48,4.20
2011,04,26,01,49,4.20
2011,04,26,01,50,4.20
2011,04,26,01,51,4.20
2011,04,26,01,52,4.20
2011,04,26,01,53,4.20
2011,04,26,01,54,4.20
2011,04,26,01,55,4.30
2011,04,26,01,56,4.30
2011,04,26,01,57,4.40
2011,04,26,01,58,4.40
2011,04,26,01,59,4.40
2011,04,26,02,00,4.50
2011,04,26,02,01,4.50
2011,04,26,02,02,4.50
2011,04,26,02,03,4.60
2011,04,26,02,04,4.60
2011,04,26,02,05,4.60
2011,04,26,02,06,4.60
2011,04,26,02,07,4.60
2011,04,26,02,08,4.60
2011,04,26,02,09,4.60
2011,04,26,02,10,4.70
2011,04,26,02,11,4.70
2011,04,26,02,12,4.80
2011,04,26,02,13,4.90
2011,04,26,02,14,4.90
2011,04,26,02,15,4.90
2011,04,26,02,16,4.90
2011,04,26,02,17,4.90
2011,04,26,02,18,4.90
2011,04,26,02,19,4.90
2011,04,26,02,20,4.90
2011,04,26,02,21,4.90
2011,04,26,02,22,4.90
2011,04,26,02,23,4.90
2011,04,26,02,24,4.80
2011,04,26,02,25,4.80
2011,04,26,02,26,4.80
2011,04,26,02,27,4.80
2011,04,26,02,28,4.90
2011,04,26,02,29,4.90
2011,04,26,02,30,4.90
2011,04,26,02,31,4.90
2011,04,26,02,32,4.90
2011,04,26,02,33,4.90
2011,04,26,02,34,4.90
2011,04,26,02,35,4.90
2011,04,26,02,36,4.90
2011,04,26,02,37,4.90
2011,04,26,02,38,4.90
2011,04,26,02,39,4.90
2011,04,26,02,40,4.80
2011,04,26,02,41,4.90
2011,04,26,02,42,4.80
2011,04,26,02,43,4.80
2011,04,26,02,44,4.80
2011,04,26,02,45,4.70
2011,04,26,02,46,4.80
2011,04,26,02,47,4.80
2011,04,26,02,48,4.80
2011,04,26,02,49,4.80
2011,04,26,02,50,4.80
2011,04,26,02,51,4.90
2011,04,26,02,52,4.90
2011,04,26,02,53,4.90
2011,04,26,02,54,4.90
2011,04,26,02,55,4.90
2011,04,26,02,56,4.90
2011,04,26,02,57,4.90
2011,04,26,02,58,4.90
2011,04,26,02,59,4.90
2011,04,26,03,00,4.90
2011,04,26,03,01,4.90
2011,04,26,03,02,5.00
2011,04,26,03,03,5.10
2011,04,26,03,04,5.10
2011,04,26,03,05,5.10
2011,04,26,03,06,5.10
2011,04,26,03,07,5.10
2011,04,26,03,08,5.10
2011,04,26,03,09,5.10
2011,04,26,03,10,5.10
2011,04,26,03,11,5.10
2011,04,26,03,12,5.10
2011,04,26,03,13,5.10
2011,04,26,03,14,5.10
2011,04,26,03,15,5.10
2011,04,26,03,16,5.20
2011,04,26,03,17,5.20
2011,04,26,03,18,5.30
2011,04,26,03,19,5.30
2011,04,26,03,20,5.30
2011,04,26,03,21,5.30
2011,04,26,03,22,5.30
2011,04,26,03,23,5.30
2011,04,26,03,24,5.30
2011,04,26,03,25,5.30
2011,04,26,03,26,5.30
2011,04,26,03,27,5.30
2011,04,26,03,28,5.30
2011,04,26,03,29,5.30
2011,04,26,03,30,5.30
2011,04,26,03,31,5.30
2011,04,26,03,32,5.40
2011,04,26,03,33,5.40
2011,04,26,03,34,5.40
2011,04,26,03,35,5.50
2011,04,26,03,36,5.50
2011,04,26,03,37,5.50
2011,04,26,03,38,5.50
2011,04,26,03,39,5.50
2011,04,26,03,40,5.50
2011,04,26,03,41,5.50
2011,04,26,03,42,5.50
2011,04,26,03,43,5.50
2011,04,26,03,44,5.50
2011,04,26,03,45,5.50
2011,04,26,03,46,5.50
2011,04,26,03,47,5.50
2011,04,26,03,48,5.50
2011,04,26,03,49,5.50
2011,04,26,03,50,5.50
2011,04,26,03,51,5.50
2011,04,26,03,52,5.50
2011,04,26,03,53,5.50
2011,04,26,03,54,5.40
2011,04,26,03,55,5.40
2011,04,26,03,56,5.30
2011,04,26,03,57,5.30
2011,04,26,03,58,5.30
2011,04,26,03,59,5.30
2011,04,26,04,00,5.30
2011,04,26,04,01,5.30
2011,04,26,04,02,5.30
2011,04,26,04,03,5.30
2011,04,26,04,04,5.30
2011,04,26,04,05,5.30
2011,04,26,04,06,5.20
2011,04,26,04,07,5.20
2011,04,26,04,08,5.20
2011,04,26,04,09,5.20
2011,04,26,04,10,5.30
2011,04,26,04,11,5.30
2011,04,26,04,12,5.30
2011,04,26,04,13,5.30
2011,04,26,04,14,5.30
2011,04,26,04,15,5.30
2011,04,26,04,16,5.40
2011,04,26,04,17,5.40
2011,04,26,04,18,5.40
2011,04,26,04,19,5.40
2011,04,26,04,20,5.50
2011,04,26,04,21,5.50
2011,04,26,04,22,5.50
2011,04,26,04,23,5.60
2011,04,26,04,24,5.60
2011,04,26,04,25,5.60
2011,04,26,04,26,5.60
2011,04,26,04,27,5.60
2011,04,26,04,28,5.60
2011,04,26,04,29,5.60
2011,04,26,04,30,5.70
2011,04,26,04,31,5.70
2011,04,26,04,32,5.70
2011,04,26,04,33,5.70
2011,04,26,04,34,5.70
2011,04,26,04,35,5.70
2011,04,26,04,36,5.70
2011,04,26,04,37,5.70
2011,04,26,04,38,5.70
2011,04,26,04,39,5.70
2011,04,26,04,40,5.60
2011,04,26,04,41,5.60
2011,04,26,04,42,5.60
2011,04,26,04,43,5.60
2011,04,26,04,44,5.60
2011,04,26,04,45,5.50
2011,04,26,04,46,5.50
2011,04,26,04,47,5.50
2011,04,26,04,48,5.50
2011,04,26,04,49,5.50
2011,04,26,04,50,5.40
2011,04,26,04,51,5.40
2011,04,26,04,52,5.40
2011,04,26,04,53,5.40
2011,04,26,04,54,5.30
2011,04,26,04,55,5.30
2011,04,26,04,56,5.30
2011,04,26,04,57,5.30
2011,04,26,04,58,5.30
2011,04,26,04,59,5.30
2011,04,26,05,00,5.30
2011,04,26,05,01,5.30
2011,04,26,05,02,5.30
2011,04,26,05,03,5.30
2011,04,26,05,04,5.30
2011,04,26,05,05,5.30
2011,04,26,05,06,5.30
2011,04,26,05,07,5.20
2011,04,26,05,08,5.20
2011,04,26,05,09,5.20
2011,04,26,05,10,5.20
2011,04,26,05,11,5.20
2011,04,26,05,12,5.20
2011,04,26,05,13,5.20
2011,04,26,05,14,5.20
2011,04,26,05,15,5.20
2011,04,26,05,16,5.20
2011,04,26,05,17,5.20
2011,04,26,05,18,5.20
2011,04,26,05,19,5.20
2011,04,26,05,20,5.20
2011,04,26,05,21,5.10
2011,04,26,05,22,5.10
2011,04,26,05,23,5.10
2011,04,26,05,24,5.10
2011,04,26,05,25,5.10
2011,04,26,05,26,5.10
2011,04,26,05,27,5.10
2011,04,26,05,28,5.10
2011,04,26,05,29,5.00
2011,04,26,05,30,4.90
2011,04,26,05,31,4.90
2011,04,26,05,32,4.90
2011,04,26,05,33,4.90
2011,04,26,05,34,4.80
2011,04,26,05,35,4.80
2011,04,26,05,36,4.80
2011,04,26,05,37,4.80
2011,04,26,05,38,4.70
2011,04,26,05,39,4.70
2011,04,26,05,40,4.70
2011,04,26,05,41,4.70
2011,04,26,05,42,4.60
2011,04,26,05,43,4.60
2011,04,26,05,44,4.60
2011,04,26,05,45,4.60
2011,04,26,05,46,4.60
2011,04,26,05,47,4.60
2011,04,26,05,48,4.70
2011,04,26,05,49,4.70
2011,04,26,05,50,4.80
2011,04,26,05,51,4.80
2011,04,26,05,52,4.80
2011,04,26,05,53,4.80
2011,04,26,05,54,4.80
2011,04,26,05,55,4.80
2011,04,26,05,56,4.80
2011,04,26,05,57,4.80
2011,04,26,05,58,4.80
2011,04,26,05,59,4.80
2011,04,26,06,00,4.80
2011,04,26,06,01,4.80
2011,04,26,06,02,4.80
2011,04,26,06,03,4.80
2011,04,26,06,04,4.80
2011,04,26,06,05,4.80
2011,04,26,06,06,4.80
2011,04,26,06,07,4.90
2011,04,26,06,08,4.90
2011,04,26,06,09,4.90
2011,04,26,06,10,4.90
2011,04,26,06,11,4.90
2011,04,26,06,12,4.90
2011,04,26,06,13,4.90
2011,04,26,06,14,4.90
2011,04,26,06,15,4.90
2011,04,26,06,16,4.90
2011,04,26,06,17,4.90
2011,04,26,06,18,4.90
2011,04,26,06,19,4.90
2011,04,26,06,20,4.90
2011,04,26,06,21,4.90
2011,04,26,06,22,4.90
2011,04,26,06,23,4.90
2011,04,26,06,24,4.90
2011,04,26,06,25,4.90
2011,04,26,06,26,4.90
2011,04,26,06,27,4.90
2011,04,26,06,28,4.90
2011,04,26,06,29,4.90
2011,04,26,06,30,4.90
2011,04,26,06,31,4.90
2011,04,26,06,32,4.90
2011,04,26,06,33,4.90
2011,04,26,06,34,4.90
2011,04,26,06,35,4.90
2011,04,26,06,36,4.90
2011,04,26,06,37,5.00
2011,04,26,06,38,5.10
2011,04,26,06,39,5.10
2011,04,26,06,40,5.10
2011,04,26,06,41,5.10
2011,04,26,06,42,5.10
2011,04,26,06,43,5.10
2011,04,26,06,44,5.10
2011,04,26,06,45,5.10
2011,04,26,06,46,5.10
2011,04,26,06,47,5.10
2011,04,26,06,48,5.10
2011,04,26,06,49,5.10
2011,04,26,06,50,5.10
2011,04,26,06,51,5.10
2011,04,26,06,52,5.10
2011,04,26,06,53,5.10
2011,04,26,06,54,5.10
2011,04,26,06,55,5.10
2011,04,26,06,56,5.10
2011,04,26,06,57,5.10
2011,04,26,06,58,5.10
2011,04,26,06,59,5.10
2011,04,26,07,00,5.10
2011,04,26,07,01,5.10
2011,04,26,07,02,5.10
2011,04,26,07,03,5.10
2011,04,26,07,04,5.10
2011,04,26,07,05,5.10
2011,04,26,07,06,5.10
2011,04,26,07,07,5.10
2011,04,26,07,08,5.10
2011,04,26,07,09,5.10
2011,04,26,07,10,5.10
2011,04,26,07,11,5.10
2011,04,26,07,12,5.10
2011,04,26,07,13,5.10
2011,04,26,07,14,5.10
2011,04,26,07,15,5.10
2011,04,26,07,16,5.20
2011,04,26,07,17,5.20
2011,04,26,07,18,5.20
2011,04,26,07,19,5.20
2011,04,26,07,20,5.20
2011,04,26,07,21,5.30
2011,04,26,07,22,5.30
2011,04,26,07,23,5.30
2011,04,26,07,24,5.30
2011,04,26,07,25,5.30
2011,04,26,07,26,5.40
2011,04,26,07,27,5.40
2011,04,26,07,28,5.40
2011,04,26,07,29,5.40
2011,04,26,07,30,5.50
2011,04,26,07,31,5.50
2011,04,26,07,32,5.50
2011,04,26,07,33,5.50
2011,04,26,07,34,5.60
2011,04,26,07,35,5.60
2011,04,26,07,36,5.60
2011,04,26,07,37,5.70
2011,04,26,07,38,5.70
2011,04,26,07,39,5.70
2011,04,26,07,40,5.70
2011,04,26,07,41,5.80
2011,04,26,07,42,5.80
2011,04,26,07,43,5.90
2011,04,26,07,44,5.90
2011,04,26,07,45,6.00
2011,04,26,07,46,6.00
2011,04,26,07,47,6.00
2011,04,26,07,48,6.10
2011,04,26,07,49,6.10
2011,04,26,07,50,6.10
2011,04,26,07,51,6.20
2011,04,26,07,52,6.20
2011,04,26,07,53,6.20
2011,04,26,07,54,6.20
2011,04,26,07,55,6.30
2011,04,26,07,56,6.40
2011,04,26,07,57,6.40
2011,04,26,07,58,6.40
2011,04,26,07,59,6.60
2011,04,26,08,00,6.60
2011,04,26,08,01,6.60
2011,04,26,08,02,6.70
2011,04,26,08,03,6.70
2011,04,26,08,04,6.80
2011,04,26,08,05,6.80
2011,04,26,08,06,6.80
2011,04,26,08,07,6.80
2011,04,26,08,08,6.80
2011,04,26,08,09,6.90
2011,04,26,08,10,6.90
2011,04,26,08,11,6.90
2011,04,26,08,12,6.90
2011,04,26,08,13,6.90
2011,04,26,08,14,7.00
2011,04,26,08,15,7.00
2011,04,26,08,16,7.00
2011,04,26,08,17,7.00
2011,04,26,08,18,7.00
2011,04,26,08,19,7.00
2011,04,26,08,20,7.10
2011,04,26,08,21,7.10
2011,04,26,08,22,7.10
2011,04,26,08,23,7.20
2011,04,26,08,24,7.20
2011,04,26,08,25,7.30
2011,04,26,08,26,7.30
2011,04,26,08,27,7.40
2011,04,26,08,28,7.40
2011,04,26,08,29,7.50
2011,04,26,08,30,7.50
2011,04,26,08,31,7.60
2011,04,26,08,32,7.60
2011,04,26,08,33,7.70
2011,04,26,08,34,7.70
2011,04,26,08,35,7.80
2011,04,26,08,36,7.80
2011,04,26,08,37,7.90
2011,04,26,08,38,8.00
2011,04,26,08,39,8.00
2011,04,26,08,40,8.10
2011,04,26,08,41,8.20
2011,04,26,08,42,8.20
2011,04,26,08,43,8.20
2011,04,26,08,44,8.30
2011,04,26,08,45,8.30
2011,04,26,08,46,8.40
2011,04,26,08,47,8.40
2011,04,26,08,48,8.50
2011,04,26,08,49,8.50
2011,04,26,08,50,8.60
2011,04,26,08,51,8.70
2011,04,26,08,52,8.70
2011,04,26,08,53,8.70
2011,04,26,08,54,8.70
2011,04,26,08,55,8.90
2011,04,26,08,56,9.00
2011,04,26,08,57,9.10
2011,04,26,08,58,9.20
2011,04,26,08,59,9.20
2011,04,26,09,00,9.20
2011,04,26,09,01,9.40
2011,04,26,09,02,9.50
2011,04,26,09,03,9.50
2011,04,26,09,04,9.50
2011,04,26,09,05,9.40
2011,04,26,09,06,9.40
2011,04,26,09,07,9.50
2011,04,26,09,08,9.50
2011,04,26,09,09,9.60
2011,04,26,09,10,9.70
2011,04,26,09,11,9.70
2011,04,26,09,12,9.80
2011,04,26,09,13,9.80
2011,04,26,09,14,9.90
2011,04,26,09,15,9.90
2011,04,26,09,16,9.90
2011,04,26,09,17,10.00
2011,04,26,09,18,10.10
2011,04,26,09,19,10.10
2011,04,26,09,20,10.10
2011,04,26,09,21,10.10
2011,04,26,09,22,10.10
2011,04,26,09,23,10.10
2011,04,26,09,24,10.10
2011,04,26,09,25,10.10
2011,04,26,09,26,10.10
2011,04,26,09,27,10.20
2011,04,26,09,28,10.20
2011,04,26,09,29,10.20
2011,04,26,09,30,10.20
2011,04,26,09,31,10.30
2011,04,26,09,32,10.40
2011,04,26,09,33,10.40
2011,04,26,09,34,10.50
2011,04,26,09,35,10.60
2011,04,26,09,36,10.70
2011,04,26,09,37,10.70
2011,04,26,09,38,10.60
2011,04,26,09,39,10.60
2011,04,26,09,40,10.60
2011,04,26,09,41,10.60
2011,04,26,09,42,10.60
2011,04,26,09,43,10.50
2011,04,26,09,44,10.40
2011,04,26,09,45,10.50
2011,04,26,09,46,10.60
2011,04,26,09,47,10.50
2011,04,26,09,48,10.40
2011,04,26,09,49,10.40
2011,04,26,09,50,10.30
2011,04,26,09,51,10.20
2011,04,26,09,52,10.20
2011,04,26,09,53,10.20
2011,04,26,09,54,10.30
2011,04,26,09,55,10.30
2011,04,26,09,56,10.30
2011,04,26,09,57,10.20
2011,04,26,09,58,10.30
2011,04,26,09,59,10.30
2011,04,26,10,00,10.40
2011,04,26,10,01,10.50
2011,04,26,10,02,10.60
2011,04,26,10,03,10.70
2011,04,26,10,04,10.80
2011,04,26,10,05,10.70
2011,04,26,10,06,10.80
2011,04,26,10,07,10.80
2011,04,26,10,08,10.80
2011,04,26,10,09,10.70
2011,04,26,10,10,10.80
2011,04,26,10,11,10.80
2011,04,26,10,12,10.70
2011,04,26,10,13,10.70
2011,04,26,10,14,10.60
2011,04,26,10,15,10.50
2011,04,26,10,16,10.40
2011,04,26,10,17,10.30
2011,04,26,10,18,10.20
2011,04,26,10,19,10.10
2011,04,26,10,20,10.00
2011,04,26,10,21,9.90
2011,04,26,10,22,9.80
2011,04,26,10,23,9.70
2011,04,26,10,24,9.70
2011,04,26,10,25,9.70
2011,04,26,10,26,9.70
2011,04,26,10,27,9.60
2011,04,26,10,28,9.60
2011,04,26,10,29,9.60
2011,04,26,10,30,9.60
2011,04,26,10,31,9.60
2011,04,26,10,32,9.70
2011,04,26,10,33,9.70
2011,04,26,10,34,9.70
2011,04,26,10,35,9.80
2011,04,26,10,36,9.80
2011,04,26,10,37,10.00
2011,04,26,10,38,10.20
2011,04,26,10,39,10.30
2011,04,26,10,40,10.50
2011,04,26,10,41,10.60
2011,04,26,10,42,10.80
2011,04,26,10,43,11.00
2011,04,26,10,44,11.10
2011,04,26,10,45,11.10
2011,04,26,10,46,11.10
2011,04,26,10,47,11.10
2011,04,26,10,48,11.10
2011,04,26,10,49,11.10
2011,04,26,10,50,11.20
2011,04,26,10,51,11.40
2011,04,26,10,52,11.60
2011,04,26,10,53,11.80
2011,04,26,10,54,11.80
2011,04,26,10,55,11.80
2011,04,26,10,56,11.70
2011,04,26,10,57,11.60
2011,04,26,10,58,11.60
2011,04,26,10,59,11.60
2011,04,26,11,00,11.60
2011,04,26,11,01,11.80
2011,04,26,11,02,11.80
2011,04,26,11,03,11.80
2011,04,26,11,04,11.80
2011,04,26,11,05,11.80
2011,04,26,11,06,11.80
2011,04,26,11,07,11.70
2011,04,26,11,08,11.60
2011,04,26,11,09,11.60
2011,04,26,11,10,11.60
2011,04,26,11,11,11.60
2011,04,26,11,12,11.40
2011,04,26,11,13,11.40
2011,04,26,11,14,11.30
2011,04,26,11,15,11.20
2011,04,26,11,16,11.30
2011,04,26,11,17,11.30
2011,04,26,11,18,11.30
2011,04,26,11,19,11.20
2011,04,26,11,20,11.10
2011,04,26,11,21,11.10
2011,04,26,11,22,11.10
2011,04,26,11,23,11.20
2011,04,26,11,24,11.20
2011,04,26,11,25,11.40
2011,04,26,11,26,11.60
2011,04,26,11,27,11.80
2011,04,26,11,28,11.80
2011,04,26,11,29,11.60
2011,04,26,11,30,11.60
2011,04,26,11,31,11.80
2011,04,26,11,32,12.10
2011,04,26,11,33,12.30
2011,04,26,11,34,12.50
2011,04,26,11,35,12.60
2011,04,26,11,36,12.50
2011,04,26,11,37,12.40
2011,04,26,11,38,12.30
2011,04,26,11,39,12.30
2011,04,26,11,40,12.30
2011,04,26,11,41,12.20
2011,04,26,11,42,12.30
2011,04,26,11,43,12.30
2011,04,26,11,44,12.30
2011,04,26,11,45,12.30
2011,04,26,11,46,12.10
2011,04,26,11,47,12.00
2011,04,26,11,48,11.80
2011,04,26,11,49,11.80
2011,04,26,11,50,11.80
2011,04,26,11,51,11.80
2011,04,26,11,52,12.00
2011,04,26,11,53,12.20
2011,04,26,11,54,12.30
2011,04,26,11,55,12.40
2011,04,26,11,56,12.40
2011,04,26,11,57,12.50
2011,04,26,11,58,12.50
2011,04,26,11,59,12.50
2011,04,26,12,00,12.50
2011,04,26,12,01,12.40
2011,04,26,12,02,12.50
2011,04,26,12,03,12.60
2011,04,26,12,04,12.80
2011,04,26,12,05,12.80
2011,04,26,12,06,12.80
2011,04,26,12,07,12.80
2011,04,26,12,08,12.80
2011,04,26,12,09,12.90
2011,04,26,12,10,12.80
2011,04,26,12,11,12.60
2011,04,26,12,12,12.50
2011,04,26,12,13,12.50
2011,04,26,12,14,12.40
2011,04,26,12,15,12.30
2011,04,26,12,16,12.20
2011,04,26,12,17,12.10
2011,04,26,12,18,12.20
2011,04,26,12,19,12.20
2011,04,26,12,20,12.10
2011,04,26,12,21,12.10
2011,04,26,12,22,12.10
2011,04,26,12,23,12.10
2011,04,26,12,24,12.00
2011,04,26,12,25,12.00
2011,04,26,12,26,11.90
2011,04,26,12,27,12.10
2011,04,26,12,28,12.20
2011,04,26,12,29,12.20
2011,04,26,12,30,12.20
2011,04,26,12,31,12.30
2011,04,26,12,32,12.30
2011,04,26,12,33,12.20
2011,04,26,12,34,12.10
2011,04,26,12,35,12.10
2011,04,26,12,36,12.10
2011,04,26,12,37,12.20
2011,04,26,12,38,12.40
2011,04,26,12,39,12.60
2011,04,26,12,40,12.70
2011,04,26,12,41,12.70
2011,04,26,12,42,12.70
2011,04,26,12,43,12.60
2011,04,26,12,44,12.40
2011,04,26,12,45,12.30
2011,04,26,12,46,12.30
2011,04,26,12,47,12.20
2011,04,26,12,48,12.10
2011,04,26,12,49,12.00
2011,04,26,12,50,11.90
2011,04,26,12,51,11.90
2011,04,26,12,52,11.80
2011,04,26,12,53,11.80
2011,04,26,12,54,11.90
2011,04,26,12,55,11.90
2011,04,26,12,56,11.90
2011,04,26,12,57,11.80
2011,04,26,12,58,11.80
2011,04,26,12,59,11.80
2011,04,26,13,00,11.70
2011,04,26,13,01,11.80
2011,04,26,13,02,11.80
2011,04,26,13,03,12.00
2011,04,26,13,04,12.20
2011,04,26,13,05,12.40
2011,04,26,13,06,12.60
2011,04,26,13,07,12.80
2011,04,26,13,08,13.00
2011,04,26,13,09,13.00
2011,04,26,13,10,13.20
2011,04,26,13,11,13.30
2011,04,26,13,12,13.40
2011,04,26,13,13,13.40
2011,04,26,13,14,13.30
2011,04,26,13,15,13.30
2011,04,26,13,16,13.40
2011,04,26,13,17,13.40
2011,04,26,13,18,13.40
2011,04,26,13,19,13.30
2011,04,26,13,20,13.10
2011,04,26,13,21,13.00
2011,04,26,13,22,12.90
2011,04,26,13,23,12.80
2011,04,26,13,24,12.80
2011,04,26,13,25,12.80
2011,04,26,13,26,12.70
2011,04,26,13,27,12.70
2011,04,26,13,28,12.60
2011,04,26,13,29,12.60
2011,04,26,13,30,12.60
2011,04,26,13,31,12.70
2011,04,26,13,32,12.80
2011,04,26,13,33,12.80
2011,04,26,13,34,12.70
2011,04,26,13,35,12.50
2011,04,26,13,36,12.50
2011,04,26,13,37,12.70
2011,04,26,13,38,12.70
2011,04,26,13,39,12.50
2011,04,26,13,40,12.40
2011,04,26,13,41,12.30
2011,04,26,13,42,12.20
2011,04,26,13,43,12.20
2011,04,26,13,44,12.30
2011,04,26,13,45,12.30
2011,04,26,13,46,12.30
2011,04,26,13,47,12.40
2011,04,26,13,48,12.50
2011,04,26,13,49,12.50
2011,04,26,13,50,12.60
2011,04,26,13,51,12.70
2011,04,26,13,52,12.70
2011,04,26,13,53,12.80
2011,04,26,13,54,12.60
2011,04,26,13,55,12.60
2011,04,26,13,56,12.60
2011,04,26,13,57,12.60
2011,04,26,13,58,12.60
2011,04,26,13,59,12.50
2011,04,26,14,00,12.50
2011,04,26,14,01,12.60
2011,04,26,14,02,12.70
2011,04,26,14,03,12.50
2011,04,26,14,04,12.40
2011,04,26,14,05,12.50
2011,04,26,14,06,12.50
2011,04,26,14,07,12.70
2011,04,26,14,08,12.60
2011,04,26,14,09,12.60
2011,04,26,14,10,12.60
2011,04,26,14,11,12.40
2011,04,26,14,12,12.30
2011,04,26,14,13,12.30
2011,04,26,14,14,12.30
2011,04,26,14,15,12.30
2011,04,26,14,16,12.20
2011,04,26,14,17,12.20
2011,04,26,14,18,12.10
2011,04,26,14,19,12.00
2011,04,26,14,20,11.90
2011,04,26,14,21,11.90
2011,04,26,14,22,11.90
2011,04,26,14,23,12.00
2011,04,26,14,24,12.10
2011,04,26,14,25,12.00
2011,04,26,14,26,12.00
2011,04,26,14,27,12.10
2011,04,26,14,28,12.20
2011,04,26,14,29,12.20
2011,04,26,14,30,12.10
2011,04,26,14,31,12.00
2011,04,26,14,32,12.00
2011,04,26,14,33,12.10
2011,04,26,14,34,12.30
2011,04,26,14,35,12.50
2011,04,26,14,36,12.70
2011,04,26,14,37,12.90
2011,04,26,14,38,13.10
2011,04,26,14,39,13.20
2011,04,26,14,40,13.30
2011,04,26,14,41,13.30
2011,04,26,14,42,13.20
2011,04,26,14,43,13.20
2011,04,26,14,44,13.10
2011,04,26,14,45,13.10
2011,04,26,14,46,13.10
2011,04,26,14,47,13.10
2011,04,26,14,48,13.00
2011,04,26,14,49,12.90
2011,04,26,14,50,13.00
2011,04,26,14,51,13.10
2011,04,26,14,52,13.20
2011,04,26,14,53,13.20
2011,04,26,14,54,13.20
2011,04,26,14,55,13.20
2011,04,26,14,56,13.20
2011,04,26,14,57,13.20
2011,04,26,14,58,13.10
2011,04,26,14,59,13.10
2011,04,26,15,00,13.30
2011,04,26,15,01,13.30
2011,04,26,15,02,13.40
2011,04,26,15,03,13.40
2011,04,26,15,04,13.20
2011,04,26,15,05,13.10
2011,04,26,15,06,13.10
2011,04,26,15,07,13.00
2011,04,26,15,08,13.00
2011,04,26,15,09,12.90
2011,04,26,15,10,12.80
2011,04,26,15,11,12.80
2011,04,26,15,12,12.80
2011,04,26,15,13,12.70
2011,04,26,15,14,12.60
2011,04,26,15,15,12.50
2011,04,26,15,16,12.50
2011,04,26,15,17,12.60
2011,04,26,15,18,12.60
2011,04,26,15,19,12.60
2011,04,26,15,20,12.50
2011,04,26,15,21,12.50
2011,04,26,15,22,12.40
2011,04,26,15,23,12.40
2011,04,26,15,24,12.30
2011,04,26,15,25,12.30
2011,04,26,15,26,12.40
2011,04,26,15,27,12.50
2011,04,26,15,28,12.50
2011,04,26,15,29,12.40
2011,04,26,15,30,12.40
2011,04,26,15,31,12.50
2011,04,26,15,32,12.60
2011,04,26,15,33,12.80
2011,04,26,15,34,12.70
2011,04,26,15,35,12.80
2011,04,26,15,36,12.70
2011,04,26,15,37,12.60
2011,04,26,15,38,12.50
2011,04,26,15,39,12.40
2011,04,26,15,40,12.30
2011,04,26,15,41,12.20
2011,04,26,15,42,12.10
2011,04,26,15,43,12.00
2011,04,26,15,44,12.00
2011,04,26,15,45,12.10
2011,04,26,15,46,12.30
2011,04,26,15,47,12.30
2011,04,26,15,48,12.40
2011,04,26,15,49,12.50
2011,04,26,15,50,12.60
2011,04,26,15,51,12.80
2011,04,26,15,52,12.70
2011,04,26,15,53,12.50
2011,04,26,15,54,12.40
2011,04,26,15,55,12.30
2011,04,26,15,56,12.20
2011,04,26,15,57,12.10
2011,04,26,15,58,12.00
2011,04,26,15,59,11.90
2011,04,26,16,00,11.80
2011,04,26,16,01,11.80
2011,04,26,16,02,11.80
2011,04,26,16,03,11.80
2011,04,26,16,04,11.80
2011,04,26,16,05,11.80
2011,04,26,16,06,11.90
2011,04,26,16,07,12.00
2011,04,26,16,08,12.10
2011,04,26,16,09,12.20
2011,04,26,16,10,12.10
2011,04,26,16,11,12.00
2011,04,26,16,12,12.00
2011,04,26,16,13,12.00
2011,04,26,16,14,12.00
2011,04,26,16,15,12.00
2011,04,26,16,16,12.00
2011,04,26,16,17,12.00
2011,04,26,16,18,11.90
2011,04,26,16,19,11.80
2011,04,26,16,20,11.70
2011,04,26,16,21,11.70
2011,04,26,16,22,11.70
2011,04,26,16,23,11.60
2011,04,26,16,24,11.60
2011,04,26,16,25,11.50
2011,04,26,16,26,11.40
2011,04,26,16,27,11.40
2011,04,26,16,28,11.40
2011,04,26,16,29,11.50
2011,04,26,16,30,11.60
2011,04,26,16,31,11.50
2011,04,26,16,32,11.40
2011,04,26,16,33,11.30
2011,04,26,16,34,11.20
2011,04,26,16,35,11.20
2011,04,26,16,36,11.10
2011,04,26,16,37,11.10
2011,04,26,16,38,11.10
2011,04,26,16,39,11.00
2011,04,26,16,40,11.10
2011,04,26,16,41,11.10
2011,04,26,16,42,11.10
2011,04,26,16,43,11.20
2011,04,26,16,44,11.20
2011,04,26,16,45,11.20
2011,04,26,16,46,11.20
2011,04,26,16,47,11.10
2011,04,26,16,48,11.10
2011,04,26,16,49,11.20
2011,04,26,16,50,11.20
2011,04,26,16,51,11.30
2011,04,26,16,52,11.30
2011,04,26,16,53,11.30
2011,04,26,16,54,11.30
2011,04,26,16,55,11.40
2011,04,26,16,56,11.40
2011,04,26,16,57,11.40
2011,04,26,16,58,11.30
2011,04,26,16,59,11.20
2011,04,26,17,00,11.10
2011,04,26,17,01,11.10
2011,04,26,17,02,11.10
2011,04,26,17,03,11.10
2011,04,26,17,04,11.10
2011,04,26,17,05,11.10
2011,04,26,17,06,11.20
2011,04,26,17,07,11.30
2011,04,26,17,08,11.30
2011,04,26,17,09,11.40
2011,04,26,17,10,11.50
2011,04,26,17,11,11.60
2011,04,26,17,12,11.80
2011,04,26,17,13,11.90
2011,04,26,17,14,12.00
2011,04,26,17,15,12.10
2011,04,26,17,16,12.10
2011,04,26,17,17,12.10
2011,04,26,17,18,12.10
2011,04,26,17,19,12.00
2011,04,26,17,20,12.00
2011,04,26,17,21,12.00
2011,04,26,17,22,11.80
2011,04,26,17,23,11.80
2011,04,26,17,24,11.80
2011,04,26,17,25,11.80
2011,04,26,17,26,11.70
2011,04,26,17,27,11.60
2011,04,26,17,28,11.40
2011,04,26,17,29,11.30
2011,04,26,17,30,11.20
2011,04,26,17,31,11.10
2011,04,26,17,32,11.10
2011,04,26,17,33,11.10
2011,04,26,17,34,11.10
2011,04,26,17,35,11.00
2011,04,26,17,36,10.90
2011,04,26,17,37,10.90
2011,04,26,17,38,10.90
2011,04,26,17,39,10.90
2011,04,26,17,40,10.90
2011,04,26,17,41,11.00
2011,04,26,17,42,11.10
2011,04,26,17,43,11.20
2011,04,26,17,44,11.30